FENGYUN 1C DEB, 29888

Orbit data source: Space-Track

FENGYUN 1C DEB, 29888 is space debris in SSO originally from a launch on Mon, 10 May 1999 UTC launched from the Taiyaun Space Center, China (TSC). Fengyun 1C debris stems from the Chinese weather satellite Fengyun-1C, which was intentionally destroyed by a Chinese anti-satellite missile in 2007. This event dramatically increased the amount of space debris, with thousands of trackable fragments posing hazards to satellites and human spaceflight. The Fengyun 1C debris cloud has become a focal point in discussions about space sustainability and the need for international regulations to prevent the creation of new debris.

Loading next visibility...
Identifier
29888, 1999-025GJ
Orbit
SSO
Country
Flag of CNCN / PRC
Related business
Manufacturer
Unknown
Mission
Spacecraft
Bus & Motor
Unknown
Mass
Unknown
Launch date (UTC)
1999-05-10 (26 years ago)
Launch vehicle
Unknown
Launch site
Taiyaun Space Center, China (TSC)
Object type
Payload
Rocket body
Debris
Shape & HBR
Unknown shape, 0.1 m
Radar Cross Section
Small (<0.1 m²)

Expand to show TLE details & history
Last TLE update: 12 hours ago

TLE from 12 hours ago
0 FENGYUN 1C DEB
1 29888U 99025GJ  25295.45627985  .00002391  00000-0  79102-3 0  9996
2 29888  99.1952 126.1258 0275159 170.8337 189.8011 14.19663197967765
Epoch: 2025-10-22T10:57Z
TLE epoch observation values (Epoch: 2025-10-22T10:57:02.579Z)
Latitude
Longitude
-69.26457°
Altitude
1,024.933 km
Speed
7.239 km/s
True Right ascension
08h 24m 30s
True Declination
0° 00' 00"
Sunlit
Object was in daylight at epoch
Visualization orbit readout
Latitude
Unknown
Longitude
Unknown
Altitude
Unknown
Speed
Unknown
Apparent Right ascension
Unknown
Apparent Declination
Unknown
Sunlit
N/A
Visualization observer readout
Local Sidereal Time
17:39:32
Azimuth
Unknown
Elevation
Unknown
Doppler factor
Unknown
Orbital elements
Apogee altitude
1,021.836 km
Perigee altitude
625.508 km
Semi-major axis
7,201.809 km
Eccentricity
0.02752
Inclination
99.1952°
RAAN
126.1258°
Arg. of periapsis
170.8337°
True anomaly
189.28198°
Mean anomaly
189.8011°
Eccentric anomaly
189.53981°
Mean motion
3.55125 °/min
Orbital period
101.37 mins
BSTAR
0.00079102
Loading maneuver chart data...
Computing Atmospheric mass density...

Documentation

Showing up to 5 results
|